1577574045,2019-12-29 00:00,18.10,1011.15,1036.94,214,24.75,-1.08,-25,1
1577574105,2019-12-29 00:01,18.14,1011.12,1036.91,214,24.76,-1.04,-25,1
1577574166,2019-12-29 00:02,18.13,1011.11,1036.90,214,24.76,-1.04,-24,1
1577574226,2019-12-29 00:03,18.18,1011.14,1036.92,214,24.76,-1.01,-27,1
1577574286,2019-12-29 00:04,18.18,1011.12,1036.90,214,24.76,-1.01,-25,1
1577574347,2019-12-29 00:05,18.13,1011.15,1036.93,214,24.75,-1.05,-25,1
1577574407,2019-12-29 00:06,18.09,1011.15,1036.93,214,24.75,-1.09,-27,1
1577574467,2019-12-29 00:07,18.14,1011.15,1036.93,214,24.74,-1.05,-26,1
1577574528,2019-12-29 00:08,18.12,1011.18,1036.97,214,24.76,-1.05,-27,1
1577574588,2019-12-29 00:09,18.12,1011.19,1036.97,214,24.75,-1.06,-28,1
1577574648,2019-12-29 00:10,18.11,1011.18,1036.96,214,24.75,-1.07,-26,1
1577574709,2019-12-29 00:11,18.12,1011.14,1036.93,214,24.74,-1.07,-23,1
1577574769,2019-12-29 00:12,18.10,1011.09,1036.87,214,24.74,-1.09,-25,1
1577574829,2019-12-29 00:13,18.11,1011.09,1036.88,214,24.74,-1.08,-26,1
1577574890,2019-12-29 00:14,18.14,1011.11,1036.89,214,24.74,-1.05,-26,1
1577574950,2019-12-29 00:15,18.11,1011.12,1036.90,214,24.74,-1.08,-27,1
1577575010,2019-12-29 00:16,18.13,1011.15,1036.93,214,24.74,-1.06,-25,1
1577575070,2019-12-29 00:17,18.12,1011.14,1036.92,214,24.74,-1.07,-27,1
1577575131,2019-12-29 00:18,18.14,1011.17,1036.95,214,24.74,-1.05,-23,1
1577575191,2019-12-29 00:19,18.13,1011.14,1036.92,214,24.73,-1.07,-26,1
1577575251,2019-12-29 00:20,18.11,1011.14,1036.93,214,24.73,-1.09,-26,1
1577575311,2019-12-29 00:21,18.27,1011.13,1036.91,214,24.74,-0.95,-24,1
1577575372,2019-12-29 00:22,18.08,1011.14,1036.92,214,24.73,-1.11,-24,1
1577575432,2019-12-29 00:23,18.08,1011.15,1036.93,214,24.74,-1.10,-28,1
1577575492,2019-12-29 00:24,18.09,1011.15,1036.94,214,24.73,-1.10,-26,1
1577575552,2019-12-29 00:25,18.08,1011.15,1036.94,214,24.73,-1.11,-26,1
1577575613,2019-12-29 00:26,18.05,1011.15,1036.93,214,24.73,-1.13,-26,1
1577575673,2019-12-29 00:27,18.04,1011.16,1036.94,214,24.72,-1.14,-27,1
1577575733,2019-12-29 00:28,18.08,1011.17,1036.96,214,24.72,-1.12,-26,1
1577575794,2019-12-29 00:29,18.25,1011.18,1036.97,214,24.72,-0.99,-26,1
1577575854,2019-12-29 00:30,18.06,1011.20,1036.98,214,24.72,-1.13,-26,1
1577575914,2019-12-29 00:31,17.80,1011.18,1036.96,214,24.72,-1.33,-25,1
1577575974,2019-12-29 00:32,18.06,1011.19,1036.97,214,24.72,-1.13,-21,1
1577576035,2019-12-29 00:33,18.07,1011.19,1036.98,214,24.71,-1.13,-26,1
1577576095,2019-12-29 00:34,18.06,1011.16,1036.95,214,24.72,-1.13,-24,1
1577576155,2019-12-29 00:35,18.09,1011.16,1036.94,214,24.72,-1.11,-25,1
1577576215,2019-12-29 00:36,18.09,1011.15,1036.93,214,24.71,-1.12,-25,1
1577576276,2019-12-29 00:37,18.07,1011.18,1036.97,214,24.71,-1.13,-26,1
1577576336,2019-12-29 00:38,18.12,1011.17,1036.96,214,24.71,-1.10,-26,1
1577576396,2019-12-29 00:39,18.12,1011.14,1036.92,214,24.72,-1.09,-26,1
1577576457,2019-12-29 00:40,18.10,1011.18,1036.96,214,24.72,-1.10,-26,1
1577576517,2019-12-29 00:41,18.12,1011.18,1036.97,214,24.72,-1.09,-21,1
1577576577,2019-12-29 00:42,18.14,1011.16,1036.94,214,24.72,-1.07,-26,1
1577576637,2019-12-29 00:43,18.13,1011.18,1036.96,214,24.72,-1.08,-26,1
1577576698,2019-12-29 00:44,18.13,1011.16,1036.95,214,24.72,-1.08,-24,1
1577576758,2019-12-29 00:45,18.16,1011.13,1036.91,214,24.71,-1.06,-24,1
1577576818,2019-12-29 00:46,18.11,1011.15,1036.93,214,24.72,-1.10,-27,1
1577576879,2019-12-29 00:47,18.13,1011.20,1036.98,214,24.72,-1.08,-26,1
1577576939,2019-12-29 00:48,18.15,1011.20,1036.99,214,24.72,-1.06,-26,1
1577576999,2019-12-29 00:49,18.14,1011.17,1036.96,214,24.71,-1.08,-25,1
1577577060,2019-12-29 00:51,18.11,1011.19,1036.97,214,24.71,-1.10,-25,1
1577577120,2019-12-29 00:52,18.09,1011.19,1036.97,214,24.71,-1.12,-25,1
1577577180,2019-12-29 00:53,18.14,1011.19,1036.98,214,24.71,-1.08,-23,1
1577577241,2019-12-29 00:54,18.12,1011.18,1036.97,214,24.71,-1.10,-26,1
1577577301,2019-12-29 00:55,18.12,1011.20,1036.98,214,24.70,-1.10,-26,1
1577577361,2019-12-29 00:56,18.13,1011.19,1036.98,214,24.71,-1.09,-26,1
1577577421,2019-12-29 00:57,18.13,1011.21,1037.00,214,24.71,-1.09,-26,1
1577577482,2019-12-29 00:58,18.13,1011.22,1037.00,214,24.71,-1.09,-26,1
1577577542,2019-12-29 00:59,18.14,1011.21,1036.99,214,24.71,-1.08,-26,1
1577577602,2019-12-29 01:00,18.14,1011.24,1037.03,214,24.71,-1.08,-25,1
1577577663,2019-12-29 01:01,18.28,1011.24,1037.03,214,24.71,-0.97,-25,1
1577577723,2019-12-29 01:02,18.08,1011.24,1037.02,214,24.70,-1.13,-26,1
1577577783,2019-12-29 01:03,18.16,1011.27,1037.06,214,24.70,-1.07,-22,1
1577577844,2019-12-29 01:04,18.08,1011.29,1037.07,214,24.70,-1.13,-26,1
1577577904,2019-12-29 01:05,18.06,1011.28,1037.06,214,24.70,-1.14,-27,1
1577577964,2019-12-29 01:06,18.07,1011.29,1037.07,214,24.70,-1.14,-27,1
1577578025,2019-12-29 01:07,18.10,1011.25,1037.04,214,24.71,-1.11,-26,1
1577578085,2019-12-29 01:08,18.10,1011.26,1037.04,214,24.71,-1.11,-25,1
1577578145,2019-12-29 01:09,18.12,1011.27,1037.06,214,24.70,-1.10,-26,1
1577578206,2019-12-29 01:10,18.12,1011.27,1037.06,214,24.70,-1.10,-24,1
1577578266,2019-12-29 01:11,18.10,1011.27,1037.05,214,24.71,-1.11,-25,1
1577578326,2019-12-29 01:12,18.09,1011.28,1037.07,214,24.70,-1.13,-26,1
1577578387,2019-12-29 01:13,18.11,1011.27,1037.06,214,24.71,-1.10,-26,1
1577578447,2019-12-29 01:14,18.10,1011.28,1037.06,214,24.71,-1.11,-27,1
1577578507,2019-12-29 01:15,18.07,1011.27,1037.05,214,24.71,-1.13,-27,1
1577578567,2019-12-29 01:16,18.04,1011.26,1037.04,214,24.71,-1.15,-26,1
1577578627,2019-12-29 01:17,18.07,1011.25,1037.04,214,24.71,-1.13,-26,1
1577578688,2019-12-29 01:18,18.07,1011.26,1037.04,214,24.71,-1.13,-26,1
1577578748,2019-12-29 01:19,18.12,1011.25,1037.03,214,24.71,-1.10,-23,1
1577578808,2019-12-29 01:20,18.32,1011.25,1037.03,214,24.70,-0.95,-25,1
1577578869,2019-12-29 01:21,18.17,1011.21,1037.00,214,24.71,-1.05,-26,1
1577578929,2019-12-29 01:22,18.15,1011.27,1037.05,214,24.71,-1.07,-22,1
1577578989,2019-12-29 01:23,18.06,1011.26,1037.04,214,24.70,-1.14,-25,1
1577579050,2019-12-29 01:24,18.04,1011.26,1037.04,214,24.71,-1.15,-27,1
1577579110,2019-12-29 01:25,18.14,1011.27,1037.05,214,24.71,-1.08,-25,1
1577579170,2019-12-29 01:26,18.11,1011.29,1037.07,214,24.71,-1.10,-25,1
1577579230,2019-12-29 01:27,18.03,1011.28,1037.06,214,24.71,-1.16,-25,1
1577579291,2019-12-29 01:28,18.03,1011.26,1037.04,214,24.72,-1.15,-27,1
1577579351,2019-12-29 01:29,18.08,1011.28,1037.06,214,24.71,-1.13,-25,1
1577579411,2019-12-29 01:30,18.16,1011.27,1037.05,214,24.72,-1.05,-26,1
1577579471,2019-12-29 01:31,18.01,1011.26,1037.04,214,24.72,-1.17,-26,1
1577579532,2019-12-29 01:32,18.01,1011.27,1037.05,214,24.72,-1.17,-26,1
1577579592,2019-12-29 01:33,18.02,1011.27,1037.05,214,24.71,-1.17,-22,1
1577579652,2019-12-29 01:34,18.04,1011.29,1037.07,214,24.72,-1.14,-25,1
1577579713,2019-12-29 01:35,18.15,1011.29,1037.08,214,24.71,-1.07,-27,1
1577579773,2019-12-29 01:36,18.02,1011.31,1037.09,214,24.72,-1.16,-24,1
1577579833,2019-12-29 01:37,18.03,1011.30,1037.09,214,24.72,-1.15,-26,1
1577579893,2019-12-29 01:38,18.00,1011.31,1037.10,214,24.72,-1.18,-25,1
1577579954,2019-12-29 01:39,18.04,1011.33,1037.11,214,24.72,-1.14,-26,1
1577580014,2019-12-29 01:40,18.07,1011.32,1037.11,214,24.72,-1.12,-26,1
1577580074,2019-12-29 01:41,18.21,1011.38,1037.16,214,24.72,-1.02,-25,1
1577580135,2019-12-29 01:42,18.08,1011.37,1037.15,214,24.73,-1.11,-25,1
1577580195,2019-12-29 01:43,18.05,1011.38,1037.17,214,24.73,-1.13,-26,1
1577580255,2019-12-29 01:44,18.04,1011.39,1037.17,214,24.73,-1.14,-26,1
1577580316,2019-12-29 01:45,17.99,1011.35,1037.14,214,24.73,-1.18,-25,1
1577580376,2019-12-29 01:46,17.95,1011.34,1037.12,214,24.72,-1.21,-26,1
1577580436,2019-12-29 01:47,18.00,1011.36,1037.14,214,24.72,-1.18,-27,1
1577580496,2019-12-29 01:48,18.03,1011.41,1037.19,214,24.73,-1.14,-26,1
1577580557,2019-12-29 01:49,18.02,1011.40,1037.18,214,24.72,-1.16,-26,1
1577580617,2019-12-29 01:50,17.99,1011.38,1037.16,214,24.73,-1.18,-26,1
1577580677,2019-12-29 01:51,18.00,1011.40,1037.18,214,24.73,-1.17,-25,1
1577580738,2019-12-29 01:52,18.02,1011.40,1037.18,214,24.73,-1.15,-27,1
1577580798,2019-12-29 01:53,18.00,1011.40,1037.18,214,24.72,-1.18,-27,1
1577580858,2019-12-29 01:54,18.02,1011.41,1037.20,214,24.73,-1.15,-25,1
1577580918,2019-12-29 01:55,17.98,1011.38,1037.17,214,24.73,-1.19,-26,1
1577580979,2019-12-29 01:56,18.01,1011.40,1037.18,214,24.73,-1.16,-24,1
1577581039,2019-12-29 01:57,18.00,1011.38,1037.17,214,24.73,-1.17,-26,1
1577581099,2019-12-29 01:58,17.98,1011.39,1037.18,214,24.73,-1.19,-26,1
1577581160,2019-12-29 01:59,17.94,1011.38,1037.16,214,24.73,-1.21,-26,1
1577581220,2019-12-29 02:00,18.00,1011.35,1037.14,214,24.72,-1.18,-26,1
1577581280,2019-12-29 02:01,18.02,1011.36,1037.15,214,24.73,-1.15,-26,1
1577581340,2019-12-29 02:02,18.02,1011.36,1037.15,214,24.73,-1.15,-25,1
1577581401,2019-12-29 02:03,18.03,1011.37,1037.15,214,24.73,-1.14,-26,1
1577581461,2019-12-29 02:04,18.03,1011.38,1037.16,214,24.73,-1.14,-26,1
1577581522,2019-12-29 02:05,18.01,1011.38,1037.16,214,24.73,-1.16,-25,1
1577581582,2019-12-29 02:06,17.90,1011.36,1037.14,214,24.72,-1.25,-27,1
1577581642,2019-12-29 02:07,18.00,1011.34,1037.12,214,24.73,-1.17,-27,1
1577581702,2019-12-29 02:08,17.99,1011.32,1037.11,214,24.73,-1.18,-25,1
1577581762,2019-12-29 02:09,17.96,1011.34,1037.12,214,24.72,-1.20,-27,1
1577581822,2019-12-29 02:10,17.98,1011.30,1037.08,214,24.73,-1.19,-26,1
1577581883,2019-12-29 02:11,17.98,1011.33,1037.12,214,24.72,-1.19,-27,1
1577581943,2019-12-29 02:12,17.96,1011.34,1037.13,214,24.72,-1.20,-26,1
1577582003,2019-12-29 02:13,18.00,1011.32,1037.11,214,24.72,-1.18,-23,1
1577582063,2019-12-29 02:14,17.98,1011.29,1037.08,214,24.72,-1.19,-25,1
1577582123,2019-12-29 02:15,17.70,1011.25,1037.04,214,24.72,-1.40,-25,1
1577582183,2019-12-29 02:16,17.94,1011.27,1037.05,214,24.72,-1.22,-25,1
1577582243,2019-12-29 02:17,17.95,1011.30,1037.08,214,24.71,-1.22,-25,1
1577582303,2019-12-29 02:18,17.96,1011.28,1037.06,214,24.72,-1.20,-26,1
1577582363,2019-12-29 02:19,18.00,1011.30,1037.08,214,24.72,-1.18,-23,1
1577582423,2019-12-29 02:20,17.99,1011.30,1037.09,214,24.72,-1.19,-23,1
1577582484,2019-12-29 02:21,17.96,1011.28,1037.06,214,24.72,-1.20,-24,1
1577582544,2019-12-29 02:22,17.98,1011.30,1037.08,214,24.73,-1.19,-26,1
1577582604,2019-12-29 02:23,17.98,1011.28,1037.06,214,24.73,-1.19,-26,1
1577582664,2019-12-29 02:24,17.96,1011.27,1037.05,214,24.72,-1.20,-26,1
1577582724,2019-12-29 02:25,18.00,1011.25,1037.04,214,24.73,-1.17,-25,1
1577582784,2019-12-29 02:26,17.95,1011.27,1037.05,214,24.72,-1.21,-24,1
1577582844,2019-12-29 02:27,17.94,1011.24,1037.02,214,24.72,-1.22,-26,1
1577582904,2019-12-29 02:28,17.94,1011.27,1037.05,214,24.72,-1.22,-26,1
1577582964,2019-12-29 02:29,18.11,1011.25,1037.03,214,24.72,-1.10,-23,1
1577583024,2019-12-29 02:30,17.98,1011.26,1037.04,214,24.72,-1.19,-23,1
1577583084,2019-12-29 02:31,17.95,1011.25,1037.03,214,24.72,-1.21,-27,1
1577583145,2019-12-29 02:32,17.95,1011.23,1037.02,214,24.72,-1.21,-26,1
1577583205,2019-12-29 02:33,17.94,1011.21,1037.00,214,24.72,-1.22,-24,1
1577583265,2019-12-29 02:34,17.91,1011.25,1037.03,214,24.72,-1.24,-27,1
1577583325,2019-12-29 02:35,17.93,1011.26,1037.04,214,24.72,-1.23,-25,1
1577583385,2019-12-29 02:36,17.94,1011.22,1037.01,214,24.72,-1.22,-25,1
1577583445,2019-12-29 02:37,17.91,1011.22,1037.01,214,24.71,-1.25,-27,1
1577583505,2019-12-29 02:38,17.91,1011.22,1037.00,214,24.72,-1.24,-26,1
1577583565,2019-12-29 02:39,17.92,1011.24,1037.02,214,24.71,-1.24,-27,1
1577583625,2019-12-29 02:40,17.92,1011.21,1036.99,214,24.71,-1.24,-26,1
1577583686,2019-12-29 02:41,17.95,1011.20,1036.99,214,24.72,-1.21,-26,1
1577583746,2019-12-29 02:42,17.92,1011.22,1037.01,214,24.72,-1.24,-25,1
1577583806,2019-12-29 02:43,17.90,1011.24,1037.02,214,24.72,-1.25,-27,1
1577583866,2019-12-29 02:44,17.85,1011.22,1037.01,214,24.72,-1.29,-24,1
1577583926,2019-12-29 02:45,17.92,1011.22,1037.01,214,24.71,-1.24,-25,1
1577583986,2019-12-29 02:46,17.94,1011.27,1037.05,214,24.71,-1.23,-23,1
1577584046,2019-12-29 02:47,17.92,1011.26,1037.04,214,24.72,-1.24,-25,1
1577584106,2019-12-29 02:48,17.88,1011.21,1037.00,214,24.72,-1.27,-25,1
1577584166,2019-12-29 02:49,17.92,1011.24,1037.02,214,24.72,-1.24,-26,1
1577584226,2019-12-29 02:50,17.89,1011.24,1037.02,214,24.71,-1.27,-24,1
1577584286,2019-12-29 02:51,17.88,1011.25,1037.03,214,24.72,-1.27,-26,1
1577584347,2019-12-29 02:52,17.89,1011.25,1037.04,214,24.72,-1.26,-27,1
1577584407,2019-12-29 02:53,17.92,1011.29,1037.07,214,24.71,-1.24,-25,1
1577584467,2019-12-29 02:54,17.91,1011.28,1037.06,214,24.71,-1.25,-26,1
1577584527,2019-12-29 02:55,17.90,1011.28,1037.07,214,24.72,-1.25,-25,1
1577584587,2019-12-29 02:56,17.89,1011.31,1037.09,214,24.72,-1.26,-25,1
1577584647,2019-12-29 02:57,17.87,1011.30,1037.08,214,24.71,-1.29,-25,1
1577584707,2019-12-29 02:58,17.91,1011.31,1037.09,214,24.72,-1.24,-26,1
1577584830,2019-12-29 03:00,17.89,1011.31,1037.10,214,24.72,-1.26,-25,1
1577584891,2019-12-29 03:01,17.89,1011.32,1037.10,214,24.72,-1.26,-26,1
1577584951,2019-12-29 03:02,17.85,1011.27,1037.05,214,24.72,-1.29,-24,1
1577585011,2019-12-29 03:03,17.86,1011.27,1037.06,214,24.72,-1.29,-25,1
1577585071,2019-12-29 03:04,17.67,1011.30,1037.09,214,24.73,-1.42,-26,1
1577585132,2019-12-29 03:05,17.61,1011.25,1037.04,214,24.72,-1.47,-26,1
1577585192,2019-12-29 03:06,17.83,1011.24,1037.03,214,24.72,-1.30,-27,1
1577585252,2019-12-29 03:07,17.80,1011.21,1036.99,214,24.72,-1.33,-25,1
1577585313,2019-12-29 03:08,17.84,1011.20,1036.98,214,24.72,-1.30,-27,1
1577585373,2019-12-29 03:09,17.88,1011.22,1037.01,214,24.72,-1.27,-25,1
1577585433,2019-12-29 03:10,17.83,1011.20,1036.99,214,24.72,-1.30,-28,1
1577585493,2019-12-29 03:11,17.85,1011.19,1036.97,214,24.72,-1.29,-27,1
1577585554,2019-12-29 03:12,17.90,1011.22,1037.00,214,24.72,-1.25,-24,1
1577585614,2019-12-29 03:13,17.89,1011.20,1036.98,214,24.72,-1.26,-25,1
1577585674,2019-12-29 03:14,18.11,1011.21,1036.99,214,24.73,-1.09,-24,1
1577585735,2019-12-29 03:15,17.88,1011.22,1037.00,214,24.72,-1.27,-27,1
1577585795,2019-12-29 03:16,17.86,1011.22,1037.00,214,24.73,-1.28,-26,1
1577585855,2019-12-29 03:17,17.84,1011.22,1037.00,214,24.73,-1.29,-26,1
1577585916,2019-12-29 03:18,17.99,1011.22,1037.00,214,24.72,-1.19,-26,1
1577585976,2019-12-29 03:19,17.84,1011.20,1036.98,214,24.71,-1.30,-24,1
1577586036,2019-12-29 03:20,17.84,1011.25,1037.03,214,24.72,-1.29,-26,1
1577586096,2019-12-29 03:21,17.86,1011.28,1037.06,214,24.73,-1.28,-25,1
1577586157,2019-12-29 03:22,17.87,1011.29,1037.08,214,24.73,-1.27,-26,1
1577586217,2019-12-29 03:23,17.86,1011.29,1037.07,214,24.72,-1.29,-27,1
1577586277,2019-12-29 03:24,17.87,1011.30,1037.08,214,24.73,-1.27,-22,1
1577586338,2019-12-29 03:25,17.87,1011.28,1037.06,214,24.72,-1.28,-23,1
1577586398,2019-12-29 03:26,17.84,1011.26,1037.04,214,24.73,-1.29,-26,1
1577586458,2019-12-29 03:27,17.87,1011.28,1037.07,214,24.72,-1.28,-25,1
1577586518,2019-12-29 03:28,17.89,1011.28,1037.07,214,24.73,-1.25,-24,1
1577586579,2019-12-29 03:29,17.88,1011.31,1037.10,214,24.73,-1.26,-26,1
1577586639,2019-12-29 03:30,17.88,1011.33,1037.11,214,24.73,-1.26,-25,1
1577586699,2019-12-29 03:31,17.84,1011.36,1037.14,214,24.73,-1.29,-25,1
1577586760,2019-12-29 03:32,17.87,1011.35,1037.13,214,24.73,-1.27,-26,1
1577586820,2019-12-29 03:33,17.84,1011.37,1037.15,214,24.73,-1.29,-25,1
1577586880,2019-12-29 03:34,17.82,1011.37,1037.15,214,24.72,-1.31,-24,1
1577586941,2019-12-29 03:35,17.78,1011.35,1037.14,214,24.72,-1.35,-25,1
1577587001,2019-12-29 03:36,17.81,1011.34,1037.12,214,24.73,-1.31,-22,1
1577587061,2019-12-29 03:37,17.83,1011.33,1037.11,214,24.72,-1.30,-25,1
1577587121,2019-12-29 03:38,17.83,1011.34,1037.12,214,24.72,-1.30,-26,1
1577587182,2019-12-29 03:39,17.82,1011.35,1037.13,214,24.72,-1.31,-25,1
1577587242,2019-12-29 03:40,17.80,1011.36,1037.15,214,24.72,-1.33,-25,1
1577587302,2019-12-29 03:41,17.81,1011.36,1037.15,214,24.72,-1.32,-26,1
1577587363,2019-12-29 03:42,17.82,1011.35,1037.14,214,24.72,-1.31,-26,1
1577587423,2019-12-29 03:43,17.82,1011.36,1037.14,214,24.72,-1.31,-25,1
1577587483,2019-12-29 03:44,17.83,1011.37,1037.15,214,24.72,-1.30,-26,1
1577587543,2019-12-29 03:45,17.82,1011.37,1037.15,214,24.72,-1.31,-26,1
1577587604,2019-12-29 03:46,17.79,1011.36,1037.14,214,24.72,-1.34,-26,1
1577587664,2019-12-29 03:47,17.78,1011.37,1037.15,214,24.71,-1.35,-25,1
1577587724,2019-12-29 03:48,17.81,1011.38,1037.16,214,24.72,-1.32,-24,1
1577587785,2019-12-29 03:49,17.84,1011.37,1037.16,214,24.72,-1.30,-26,1
1577587845,2019-12-29 03:50,17.82,1011.38,1037.16,214,24.71,-1.32,-27,1
1577587905,2019-12-29 03:51,17.82,1011.38,1037.17,214,24.72,-1.31,-25,1
1577587965,2019-12-29 03:52,17.84,1011.39,1037.18,214,24.71,-1.30,-27,1
1577588026,2019-12-29 03:53,17.86,1011.40,1037.18,214,24.72,-1.29,-26,1
1577588086,2019-12-29 03:54,17.84,1011.39,1037.18,214,24.72,-1.29,-26,1
1577588146,2019-12-29 03:55,17.82,1011.38,1037.17,214,24.72,-1.31,-26,1
1577588206,2019-12-29 03:56,17.81,1011.39,1037.17,214,24.70,-1.34,-25,1
1577588267,2019-12-29 03:57,17.87,1011.41,1037.19,214,24.71,-1.29,-26,1
1577588327,2019-12-29 03:58,17.81,1011.42,1037.20,214,24.72,-1.32,-26,1
1577588387,2019-12-29 03:59,17.91,1011.41,1037.19,214,24.71,-1.25,-25,1
1577588448,2019-12-29 04:00,17.79,1011.42,1037.20,214,24.71,-1.35,-24,1
1577588508,2019-12-29 04:01,17.78,1011.40,1037.18,214,24.72,-1.35,-27,1
1577588568,2019-12-29 04:02,17.78,1011.46,1037.25,214,24.71,-1.35,-23,1
1577588628,2019-12-29 04:03,17.83,1011.41,1037.19,214,24.71,-1.31,-27,1
1577588689,2019-12-29 04:04,17.82,1011.43,1037.22,214,24.71,-1.32,-27,1
1577588749,2019-12-29 04:05,17.81,1011.46,1037.25,214,24.71,-1.33,-22,1
1577588809,2019-12-29 04:06,17.77,1011.47,1037.26,214,24.71,-1.36,-26,1
1577588870,2019-12-29 04:07,17.80,1011.47,1037.26,214,24.71,-1.34,-26,1
1577588930,2019-12-29 04:08,17.78,1011.45,1037.24,214,24.71,-1.35,-26,1
1577588990,2019-12-29 04:09,17.80,1011.45,1037.24,214,24.71,-1.34,-27,1
1577589050,2019-12-29 04:10,17.81,1011.47,1037.25,214,24.72,-1.32,-27,1
1577589111,2019-12-29 04:11,17.80,1011.47,1037.26,214,24.72,-1.33,-24,1
1577589171,2019-12-29 04:12,17.80,1011.48,1037.26,214,24.71,-1.34,-25,1
1577589231,2019-12-29 04:13,17.80,1011.47,1037.25,214,24.71,-1.34,-25,1
1577589294,2019-12-29 04:14,17.42,1011.50,1037.28,214,24.71,-1.63,-26,1
1577589355,2019-12-29 04:15,17.73,1011.47,1037.25,214,24.71,-1.39,-26,1
1577589415,2019-12-29 04:16,17.78,1011.49,1037.28,214,24.71,-1.35,-22,1
1577589475,2019-12-29 04:17,17.75,1011.48,1037.27,214,24.71,-1.38,-28,1
1577589535,2019-12-29 04:18,17.73,1011.51,1037.29,214,24.70,-1.40,-26,1
1577589596,2019-12-29 04:19,17.75,1011.53,1037.31,214,24.70,-1.39,-26,1
1577589656,2019-12-29 04:20,17.62,1011.51,1037.29,214,24.69,-1.49,-25,1
1577589716,2019-12-29 04:21,17.80,1011.57,1037.35,214,24.71,-1.34,-25,1
1577589777,2019-12-29 04:22,17.76,1011.49,1037.28,214,24.70,-1.38,-26,1
1577589837,2019-12-29 04:23,17.77,1011.52,1037.30,214,24.71,-1.36,-26,1
1577589897,2019-12-29 04:24,17.76,1011.53,1037.32,214,24.70,-1.38,-26,1
1577589957,2019-12-29 04:25,17.78,1011.57,1037.35,214,24.70,-1.36,-26,1
1577590018,2019-12-29 04:26,17.66,1011.56,1037.34,214,24.71,-1.45,-25,1
1577590078,2019-12-29 04:27,17.77,1011.57,1037.36,214,24.71,-1.36,-25,1
1577590138,2019-12-29 04:28,17.78,1011.62,1037.40,214,24.71,-1.35,-25,1
1577590199,2019-12-29 04:29,17.70,1011.59,1037.37,214,24.70,-1.42,-25,1
1577590259,2019-12-29 04:30,17.77,1011.59,1037.37,214,24.69,-1.38,-24,1
1577590319,2019-12-29 04:31,17.78,1011.58,1037.37,214,24.70,-1.36,-25,1
1577590379,2019-12-29 04:32,17.78,1011.57,1037.36,214,24.70,-1.36,-26,1
1577590440,2019-12-29 04:34,17.79,1011.64,1037.42,214,24.70,-1.35,-25,1
1577590500,2019-12-29 04:35,17.73,1011.63,1037.41,214,24.69,-1.40,-26,1
1577590560,2019-12-29 04:36,17.72,1011.65,1037.43,214,24.69,-1.41,-26,1
1577590621,2019-12-29 04:37,17.60,1011.71,1037.49,214,24.70,-1.50,-24,1
1577590681,2019-12-29 04:38,17.73,1011.71,1037.50,214,24.69,-1.40,-27,1
1577590741,2019-12-29 04:39,17.73,1011.66,1037.44,214,24.68,-1.41,-25,1
1577590801,2019-12-29 04:40,17.73,1011.66,1037.44,214,24.68,-1.41,-26,1
1577590862,2019-12-29 04:41,17.75,1011.67,1037.45,214,24.69,-1.39,-27,1
1577590922,2019-12-29 04:42,17.73,1011.69,1037.47,214,24.68,-1.41,-25,1
1577590982,2019-12-29 04:43,17.75,1011.72,1037.51,214,24.68,-1.40,-25,1
1577591043,2019-12-29 04:44,17.70,1011.71,1037.49,214,24.68,-1.44,-25,1
1577591103,2019-12-29 04:45,17.46,1011.70,1037.49,214,24.67,-1.63,-23,1
1577591163,2019-12-29 04:46,17.77,1011.74,1037.52,214,24.69,-1.38,-25,1
1577591223,2019-12-29 04:47,17.81,1011.70,1037.48,214,24.68,-1.35,-24,1
1577591284,2019-12-29 04:48,17.77,1011.71,1037.50,214,24.68,-1.39,-25,1
1577591344,2019-12-29 04:49,17.78,1011.74,1037.53,214,24.68,-1.38,-27,1
1577591404,2019-12-29 04:50,17.78,1011.72,1037.50,214,24.69,-1.37,-26,1
1577591464,2019-12-29 04:51,17.78,1011.75,1037.53,214,24.68,-1.38,-25,1
1577591525,2019-12-29 04:52,17.79,1011.74,1037.52,214,24.68,-1.37,-25,1
1577591585,2019-12-29 04:53,17.79,1011.78,1037.56,214,24.68,-1.37,-25,1
1577591645,2019-12-29 04:54,17.74,1011.77,1037.55,214,24.68,-1.40,-25,1
1577591706,2019-12-29 04:55,17.72,1011.77,1037.55,214,24.67,-1.43,-27,1
1577591766,2019-12-29 04:56,17.74,1011.78,1037.57,214,24.68,-1.40,-26,1
1577591826,2019-12-29 04:57,17.72,1011.77,1037.55,214,24.67,-1.43,-27,1
1577591886,2019-12-29 04:58,17.75,1011.76,1037.54,214,24.68,-1.40,-26,1
1577591947,2019-12-29 04:59,17.72,1011.74,1037.52,214,24.67,-1.43,-25,1
1577592007,2019-12-29 05:00,17.71,1011.76,1037.54,214,24.67,-1.44,-26,1
1577592067,2019-12-29 05:01,17.73,1011.77,1037.56,214,24.67,-1.42,-27,1
1577592128,2019-12-29 05:02,17.66,1011.76,1037.54,214,24.67,-1.48,-26,1
1577592188,2019-12-29 05:03,17.77,1011.75,1037.53,214,24.67,-1.40,-26,1
1577592248,2019-12-29 05:04,17.71,1011.74,1037.53,214,24.67,-1.44,-25,1
1577592308,2019-12-29 05:05,17.71,1011.71,1037.50,214,24.67,-1.44,-24,1
1577592369,2019-12-29 05:06,17.80,1011.72,1037.50,214,24.67,-1.37,-25,1
1577592429,2019-12-29 05:07,17.74,1011.73,1037.51,214,24.67,-1.41,-26,1
1577592489,2019-12-29 05:08,17.75,1011.74,1037.53,214,24.66,-1.41,-26,1
1577592550,2019-12-29 05:09,17.70,1011.67,1037.45,214,24.66,-1.45,-24,1
1577592610,2019-12-29 05:10,17.71,1011.64,1037.42,214,24.66,-1.45,-22,1
1577592670,2019-12-29 05:11,17.71,1011.63,1037.41,214,24.66,-1.45,-26,1
1577592730,2019-12-29 05:12,17.73,1011.69,1037.47,214,24.67,-1.42,-23,1
1577592791,2019-12-29 05:13,17.90,1011.67,1037.45,214,24.66,-1.30,-26,1
1577592851,2019-12-29 05:14,17.78,1011.65,1037.43,214,24.66,-1.40,-25,1
1577592911,2019-12-29 05:15,17.58,1011.67,1037.45,214,24.67,-1.54,-27,1
1577592972,2019-12-29 05:16,17.74,1011.62,1037.40,214,24.66,-1.42,-26,1
1577593032,2019-12-29 05:17,17.73,1011.59,1037.37,214,24.66,-1.43,-27,1
1577593092,2019-12-29 05:18,17.70,1011.57,1037.35,214,24.66,-1.45,-26,1
1577593152,2019-12-29 05:19,17.70,1011.59,1037.37,214,24.66,-1.45,-26,1
1577593213,2019-12-29 05:20,17.72,1011.61,1037.39,214,24.66,-1.44,-25,1
1577593273,2019-12-29 05:21,17.49,1011.59,1037.37,214,24.66,-1.62,-26,1
1577593333,2019-12-29 05:22,17.69,1011.57,1037.35,214,24.66,-1.46,-25,1
1577593394,2019-12-29 05:23,17.74,1011.56,1037.34,214,24.66,-1.42,-25,1
1577593454,2019-12-29 05:24,17.71,1011.52,1037.30,214,24.66,-1.45,-27,1
1577593514,2019-12-29 05:25,17.66,1011.52,1037.30,214,24.66,-1.49,-26,1
1577593574,2019-12-29 05:26,17.67,1011.57,1037.36,214,24.66,-1.48,-27,1
1577593635,2019-12-29 05:27,17.70,1011.56,1037.35,214,24.66,-1.45,-25,1
1577593695,2019-12-29 05:28,17.69,1011.55,1037.33,214,24.67,-1.45,-26,1
1577593755,2019-12-29 05:29,17.70,1011.57,1037.35,214,24.66,-1.45,-22,1
1577593815,2019-12-29 05:30,17.70,1011.59,1037.37,214,24.67,-1.45,-26,1
1577593876,2019-12-29 05:31,17.70,1011.59,1037.37,214,24.67,-1.45,-25,1
1577593936,2019-12-29 05:32,17.72,1011.56,1037.35,214,24.67,-1.43,-24,1
1577593996,2019-12-29 05:33,17.66,1011.55,1037.33,214,24.67,-1.48,-24,1
1577594057,2019-12-29 05:34,17.66,1011.52,1037.30,214,24.67,-1.48,-26,1
1577594117,2019-12-29 05:35,17.66,1011.52,1037.30,214,24.67,-1.48,-26,1